Location: Unspecified
(0.0000°N, 0.0000°E)
Time: 17:57:56
(UTC+00:00)

Envisat - Pass Details

Date: 16 October 2021
Orbit: 764 x 766 km, 98.2° (Epoch: 23 October)

Event Time Altitude Azimuth Distance (km) Brightness Sun altitude
Rises 04:27:57 0° 19° (NNE) 3,213 6.3 -19.2°
Reaches altitude 10° 04:30:16 10° 22° (NNE) 2,290 5.6 -18.6°
Maximum altitude 04:35:14 61° 102° (ESE) 865 3.5 -17.4°
Drops below altitude 10° 04:40:14 10° 182° (S) 2,300 5.6 -16.1°
Sets 04:42:34 0° 185° (S) 3,229 6.3 -15.6°
